| time (UTC) | temp F | wind direction | speed MPH | gust MPH | rain 1hr in | rain 24hr in | rain mn in | humidity % | barometer mb |
| 20260503173258 | 65 | 285 | 2.0 | 4.0 | 0.00 | 0.02 | 0.00 | 62 | 1009.1 |
| 20260503172757 | 66 | 282 | 3.0 | 4.0 | 0.00 | 0.02 | 0.00 | 62 | 1009.3 |
| 20260503172257 | 66 | 249 | 2.0 | 2.0 | 0.00 | 0.02 | 0.00 | 60 | 1009.2 |
| 20260503171756 | 67 | 245 | 1.0 | 2.0 | 0.00 | 0.02 | 0.00 | 58 | 1009.4 |
| 20260503171257 | 69 | 244 | 2.0 | 2.0 | 0.00 | 0.02 | 0.00 | 55 | 1009.3 |
| 20260503170756 | 71 | 236 | 0.0 | 1.0 | 0.00 | 0.02 | 0.00 | 51 | 1009.5 |
| 20260503170256 | 74 | 236 | 3.0 | 4.0 | 0.00 | 0.02 | 0.00 | 49 | 1009.4 |
| 20260503150753 | 69 | 279 | 2.0 | 4.0 | 0.00 | 0.19 | 0.00 | 55 | 1009.7 |
| 20260503150252 | 68 | 259 | 1.0 | 2.0 | 0.00 | 0.19 | 0.00 | 56 | 1009.7 |
| 20260503140302 | 65 | 226 | 3.0 | 4.0 | 0.00 | 0.19 | 0.00 | 60 | 1010.0 |
| 20260503131304 | 68 | 247 | 1.0 | 2.0 | 0.00 | 0.19 | 0.00 | 54 | 1010.2 |
| 20260503130804 | 68 | 233 | 3.0 | 6.0 | 0.00 | 0.19 | 0.00 | 52 | 1010.2 |
| 20260503130253 | 69 | 240 | 2.0 | 4.0 | 0.00 | 0.19 | 0.00 | 52 | 1010.2 |
| 20260503110752 | 68 | 279 | 2.0 | 3.0 | 0.00 | 0.19 | 0.00 | 54 | 1010.4 |
| 20260503110252 | 68 | 274 | 2.0 | 3.0 | 0.00 | 0.19 | 0.00 | 55 | 1010.3 |
| 20260503100256 | 62 | 271 | 0.0 | 1.0 | 0.00 | 0.19 | 0.00 | 68 | 1010.7 |
| 20260503090300 | 60 | 266 | 1.0 | 2.0 | 0.00 | 0.19 | 0.00 | 74 | 1010.9 |
| 20260503081256 | 57 | 315 | 2.0 | 2.0 | 0.00 | 0.19 | 0.00 | 84 | 1010.6 |
| 20260503080755 | 58 | 315 | 1.0 | 2.0 | 0.00 | 0.19 | 0.00 | 86 | 1010.7 |
| 20260503080255 | 58 | 315 | 2.0 | 2.0 | 0.00 | 0.19 | 0.00 | 88 | 1010.6 |
| 20260503072756 | 56 | 293 | 2.0 | 2.0 | 0.00 | 0.19 | 0.00 | 96 | 1010.5 |
| 20260503072255 | 56 | 272 | 0.0 | 2.0 | 0.00 | 0.19 | 0.00 | 96 | 1010.4 |
| 20260503071755 | 56 | 275 | 1.0 | 2.0 | 0.00 | 0.19 | 0.00 | 96 | 1010.4 |
| 20260503071254 | 56 | 270 | 1.0 | 3.0 | 0.00 | 0.19 | 0.00 | 96 | 1010.5 |
| 20260503070754 | 56 | 258 | 2.0 | 2.0 | 0.00 | 0.19 | 0.00 | 96 | 1010.5 |
| 20260503070253 | 56 | 280 | 2.0 | 3.0 | 0.00 | 0.19 | 0.00 | 96 | 1010.3 |
| 20260503060258 | 54 | 241 | 0.0 | 1.0 | 0.00 | 0.19 | 0.00 | 96 | 1010.2 |
| 20260503054302 | 54 | 254 | 1.0 | 2.0 | 0.00 | 0.19 | 0.00 | 96 | 1010.0 |
| 20260503053802 | 54 | 254 | 2.0 | 3.0 | 0.00 | 0.19 | 0.00 | 96 | 1010.1 |
| 20260503053301 | 54 | 247 | 1.0 | 2.0 | 0.00 | 0.19 | 0.00 | 96 | 1010.0 |
| 20260503052801 | 54 | 245 | 2.0 | 3.0 | 0.00 | 0.19 | 0.00 | 96 | 1010.0 |
| 20260503052300 | 54 | 258 | 2.0 | 2.0 | 0.00 | 0.19 | 0.00 | 96 | 1010.0 |
| 20260503051800 | 54 | 285 | 1.0 | 3.0 | 0.00 | 0.19 | 0.00 | 96 | 1009.9 |
| 20260503051300 | 53 | 291 | 1.0 | 2.0 | 0.00 | 0.19 | 0.00 | 97 | 1010.0 |
| 20260503050800 | 53 | 281 | 2.0 | 2.0 | 0.00 | 0.19 | 0.00 | 97 | 1009.8 |
| 20260503050259 | 53 | 315 | 1.0 | 2.0 | 0.00 | 0.19 | 0.00 | 97 | 1010.0 |
| 20260503045758 | 53 | 180 | 0.0 | 1.0 | 0.00 | 0.19 | 0.00 | 97 | 1009.9 |
| 20260503045313 | 53 | 180 | 0.0 | 1.0 | 0.00 | 0.19 | 0.00 | 97 | 1009.9 |
| 20260503044802 | 53 | 180 | 0.0 | 2.0 | 0.00 | 0.19 | 0.00 | 97 | 1010.0 |
| 20260503044302 | 53 | 180 | 0.0 | 0.0 | 0.00 | 0.19 | 0.00 | 96 | 1009.8 |
| 20260503043801 | 53 | 180 | 0.0 | 0.0 | 0.00 | 0.19 | 0.00 | 96 | 1009.9 |
| 20260503043301 | 53 | 180 | 0.0 | 1.0 | 0.00 | 0.19 | 0.00 | 96 | 1009.8 |
| 20260503042800 | 53 | 180 | 0.0 | 1.0 | 0.00 | 0.19 | 0.00 | 96 | 1009.8 |
| 20260503042259 | 53 | 180 | 0.0 | 1.0 | 0.00 | 0.19 | 0.00 | 96 | 1009.7 |
| 20260503041759 | 53 | 180 | 0.0 | 0.0 | 0.00 | 0.19 | 0.00 | 96 | 1009.6 |
| 20260503041258 | 53 | 180 | 0.0 | 1.0 | 0.00 | 0.19 | 0.00 | 96 | 1009.8 |
| 20260503040758 | 53 | 180 | 0.0 | 1.0 | 0.00 | 0.19 | 0.00 | 96 | 1009.9 |
| 20260503040257 | 53 | 180 | 0.0 | 1.0 | 0.00 | 0.19 | 0.00 | 96 | 1009.9 |
| 20260503035757 | 53 | 315 | 0.0 | 0.0 | 0.00 | 0.19 | 0.00 | 96 | 1009.9 |
| 20260503035256 | 53 | 345 | 0.0 | 0.0 | 0.00 | 0.19 | 0.00 | 96 | 1009.8 |
| 20260503034811 | 53 | 345 | 0.0 | 0.0 | 0.00 | 0.19 | 0.00 | 96 | 1009.9 |
| 20260503034300 | 53 | 345 | 0.0 | 0.0 | 0.00 | 0.19 | 0.00 | 96 | 1009.9 |
| 20260503033815 | 53 | 341 | 0.0 | 0.0 | 0.00 | 0.19 | 0.00 | 96 | 1009.8 |
| 20260503033305 | 53 | 335 | 1.0 | 2.0 | 0.00 | 0.19 | 0.00 | 96 | 1009.9 |
| 20260503032804 | 53 | 344 | 2.0 | 2.0 | 0.00 | 0.19 | 0.00 | 96 | 1010.0 |
| 20260503032304 | 53 | 295 | 0.0 | 1.0 | 0.00 | 0.19 | 0.00 | 96 | 1009.9 |
| 20260503031803 | 54 | 295 | 0.0 | 1.0 | 0.00 | 0.19 | 0.00 | 95 | 1009.8 |
| 20260503031303 | 54 | 295 | 1.0 | 2.0 | 0.00 | 0.19 | 0.00 | 95 | 1010.0 |
| 20260503030802 | 54 | 270 | 1.0 | 2.0 | 0.00 | 0.19 | 0.00 | 94 | 1010.1 |
| 20260503030252 | 54 | 225 | 0.0 | 0.0 | 0.00 | 0.19 | 0.00 | 94 | 1010.0 |
| 20260503025751 | 54 | 225 | 0.0 | 1.0 | 0.00 | 0.19 | 0.00 | 94 | 1009.9 |
| 20260503025306 | 54 | 225 | 0.0 | 0.0 | 0.00 | 0.19 | 0.00 | 94 | 1010.0 |
| 20260503024806 | 53 | 225 | 0.0 | 1.0 | 0.00 | 0.19 | 0.00 | 95 | 1010.0 |
| 20260503024305 | 53 | 225 | 0.0 | 1.0 | 0.00 | 0.19 | 0.00 | 95 | 1009.7 |
| 20260503023805 | 53 | 225 | 1.0 | 2.0 | 0.00 | 0.19 | 0.00 | 95 | 1010.0 |
| 20260503023305 | 53 | 180 | 0.0 | 2.0 | 0.00 | 0.19 | 0.00 | 95 | 1010.0 |
| 20260503022804 | 53 | 180 | 0.0 | 1.0 | 0.00 | 0.19 | 0.00 | 95 | 1010.1 |
| 20260503022305 | 53 | 180 | 0.0 | 0.0 | 0.00 | 0.19 | 0.00 | 95 | 1009.9 |
| 20260503021803 | 53 | 180 | 0.0 | 0.0 | 0.00 | 0.19 | 0.00 | 95 | 1010.1 |
| 20260503021303 | 53 | 180 | 0.0 | 0.0 | 0.00 | 0.19 | 0.00 | 95 | 1009.9 |
| 20260503020802 | 53 | 180 | 0.0 | 0.0 | 0.00 | 0.19 | 0.00 | 95 | 1010.0 |
| 20260503020302 | 53 | 180 | 0.0 | 0.0 | 0.00 | 0.19 | 0.00 | 95 | 1010.0 |
| 20260503015802 | 53 | 180 | 0.0 | 1.0 | 0.00 | 0.19 | 0.00 | 95 | 1010.1 |
| 20260503015301 | 53 | 180 | 0.0 | 0.0 | 0.00 | 0.19 | 0.00 | 95 | 1010.1 |
| 20260503014801 | 54 | 180 | 0.0 | 0.0 | 0.00 | 0.19 | 0.00 | 94 | 1010.3 |
| 20260503014301 | 54 | 360 | 0.0 | 0.0 | 0.00 | 0.19 | 0.00 | 94 | 1010.1 |
| 20260503013801 | 54 | 341 | 0.0 | 0.0 | 0.00 | 0.19 | 0.00 | 94 | 1010.3 |
| 20260503013315 | 54 | 326 | 0.0 | 1.0 | 0.00 | 0.19 | 0.00 | 94 | 1010.2 |
| 20260503012805 | 55 | 317 | 0.0 | 1.0 | 0.00 | 0.19 | 0.00 | 94 | 1010.2 |
| 20260503012305 | 55 | 308 | 0.0 | 1.0 | 0.00 | 0.19 | 0.00 | 94 | 1010.4 |
| 20260503011804 | 55 | 301 | 2.0 | 4.0 | 0.00 | 0.19 | 0.00 | 95 | 1010.5 |
| 20260503011303 | 55 | 245 | 1.0 | 2.0 | 0.00 | 0.19 | 0.00 | 95 | 1010.3 |
| 20260503010803 | 55 | 235 | 1.0 | 2.0 | 0.00 | 0.19 | 0.00 | 95 | 1010.5 |
| 20260503010303 | 55 | 240 | 1.0 | 2.0 | 0.00 | 0.19 | 0.00 | 95 | 1010.7 |
| 20260503005802 | 55 | 225 | 1.0 | 2.0 | 0.00 | 0.19 | 0.00 | 95 | 1010.7 |
| 20260503005304 | 56 | 235 | 1.0 | 2.0 | 0.00 | 0.19 | 0.00 | 95 | 1010.8 |
| 20260503004801 | 56 | 247 | 1.0 | 2.0 | 0.00 | 0.19 | 0.00 | 95 | 1010.9 |
| 20260503004301 | 56 | 275 | 0.0 | 1.0 | 0.00 | 0.19 | 0.00 | 95 | 1010.9 |
| 20260503003800 | 56 | 275 | 0.0 | 2.0 | 0.00 | 0.19 | 0.00 | 95 | 1010.9 |
| 20260503003259 | 56 | 275 | 0.0 | 2.0 | 0.00 | 0.19 | 0.00 | 95 | 1010.9 |
| 20260503002758 | 56 | 260 | 1.0 | 2.0 | 0.00 | 0.19 | 0.00 | 96 | 1011.0 |
| 20260503002258 | 56 | 232 | 0.0 | 2.0 | 0.00 | 0.19 | 0.00 | 96 | 1011.0 |
| 20260503001812 | 56 | 241 | 1.0 | 2.0 | 0.00 | 0.19 | 0.00 | 96 | 1011.0 |
| 20260503001302 | 56 | 262 | 0.0 | 1.0 | 0.00 | 0.19 | 0.00 | 96 | 1011.0 |
| 20260503000801 | 56 | 262 | 0.0 | 1.0 | 0.00 | 0.19 | 0.00 | 96 | 1011.0 |
| 20260503000301 | 56 | 262 | 1.0 | 2.0 | 0.00 | 0.19 | 0.00 | 96 | 1011.1 |
| 20260502235800 | 56 | 275 | 2.0 | 3.0 | 0.00 | 0.19 | 0.00 | 96 | 1011.0 |
| 20260502235300 | 56 | 280 | 2.0 | 2.0 | 0.00 | 0.19 | 0.00 | 96 | 1011.2 |
| 20260502234800 | 56 | 288 | 0.0 | 1.0 | 0.00 | 0.19 | 0.00 | 96 | 1011.4 |
| 20260502234259 | 56 | 284 | 0.0 | 2.0 | 0.00 | 0.19 | 0.00 | 96 | 1011.2 |
| 20260502233759 | 56 | 276 | 1.0 | 2.0 | 0.00 | 0.19 | 0.00 | 96 | 1011.2 |
| 20260502233258 | 56 | 278 | 2.0 | 3.0 | 0.00 | 0.19 | 0.00 | 96 | 1011.0 |
| 20260502232813 | 56 | 255 | 1.0 | 2.0 | 0.00 | 0.19 | 0.00 | 96 | 1011.0 |
| 20260502232304 | 56 | 252 | 2.0 | 3.0 | 0.00 | 0.19 | 0.00 | 96 | 1011.1 |
| 20260502231802 | 56 | 235 | 2.0 | 4.0 | 0.00 | 0.19 | 0.00 | 96 | 1011.0 |
| 20260502231252 | 56 | 197 | 2.0 | 3.0 | 0.00 | 0.19 | 0.00 | 96 | 1011.3 |
| 20260502230806 | 56 | 250 | 0.0 | 2.0 | 0.00 | 0.19 | 0.00 | 96 | 1011.3 |
| 20260502230256 | 56 | 241 | 0.0 | 2.0 | 0.00 | 0.19 | 0.00 | 96 | 1011.2 |
| 20260502225756 | 56 | 241 | 1.0 | 2.0 | 0.00 | 0.19 | 0.00 | 96 | 1011.3 |
| 20260502225255 | 56 | 230 | 1.0 | 2.0 | 0.00 | 0.19 | 0.00 | 96 | 1011.2 |
| 20260502224810 | 56 | 233 | 0.0 | 2.0 | 0.00 | 0.19 | 0.00 | 96 | 1011.1 |
| 20260502224259 | 56 | 233 | 0.0 | 1.0 | 0.00 | 0.19 | 0.00 | 96 | 1011.2 |
| 20260502223759 | 56 | 233 | 2.0 | 2.0 | 0.00 | 0.19 | 0.00 | 96 | 1011.3 |
| 20260502223313 | 56 | 250 | 0.0 | 2.0 | 0.00 | 0.19 | 0.00 | 96 | 1011.4 |
| 20260502222803 | 57 | 250 | 1.0 | 2.0 | 0.00 | 0.19 | 0.00 | 96 | 1011.2 |
| 20260502222305 | 57 | 206 | 1.0 | 2.0 | 0.00 | 0.19 | 0.00 | 96 | 1011.3 |
| 20260502221802 | 57 | 159 | 0.0 | 1.0 | 0.00 | 0.19 | 0.00 | 96 | 1011.3 |
| 20260502221302 | 57 | 199 | 0.0 | 0.0 | 0.00 | 0.19 | 0.00 | 96 | 1011.4 |
| 20260502220802 | 57 | 199 | 0.0 | 2.0 | 0.00 | 0.19 | 0.00 | 96 | 1011.4 |
| 20260502220301 | 57 | 199 | 0.0 | 1.0 | 0.00 | 0.19 | 0.00 | 96 | 1011.4 |
| 20260502215801 | 57 | 199 | 1.0 | 2.0 | 0.00 | 0.19 | 0.00 | 96 | 1011.3 |
| 20260502215300 | 57 | 225 | 1.0 | 2.0 | 0.00 | 0.19 | 0.00 | 96 | 1011.4 |
| 20260502214759 | 57 | 225 | 2.0 | 4.0 | 0.00 | 0.19 | 0.00 | 96 | 1011.4 |
| 20260502214259 | 57 | 180 | 0.0 | 2.0 | 0.00 | 0.19 | 0.00 | 96 | 1011.3 |
| 20260502213758 | 57 | 180 | 0.0 | 1.0 | 0.00 | 0.19 | 0.00 | 96 | 1011.4 |
| 20260502213258 | 57 | 180 | 0.0 | 1.0 | 0.00 | 0.19 | 0.00 | 96 | 1011.4 |
| 20260502212758 | 57 | 180 | 0.0 | 1.0 | 0.00 | 0.19 | 0.00 | 96 | 1011.3 |
| 20260502212258 | 57 | 180 | 0.0 | 2.0 | 0.00 | 0.19 | 0.00 | 96 | 1011.5 |
| 20260502211812 | 57 | 135 | 0.0 | 1.0 | 0.00 | 0.19 | 0.00 | 96 | 1011.5 |
| 20260502211317 | 57 | 135 | 0.0 | 1.0 | 0.00 | 0.19 | 0.00 | 96 | 1011.6 |
| 20260502210806 | 57 | 135 | 0.0 | 0.0 | 0.00 | 0.19 | 0.00 | 95 | 1011.7 |
| 20260502210306 | 57 | 135 | 0.0 | 0.0 | 0.00 | 0.19 | 0.00 | 95 | 1011.6 |
| 20260502205805 | 57 | 135 | 0.0 | 0.0 | 0.00 | 0.19 | 0.00 | 95 | 1011.6 |
| 20260502205305 | 57 | 178 | 1.0 | 2.0 | 0.00 | 0.19 | 0.00 | 95 | 1011.6 |
| 20260502204805 | 57 | 202 | 0.0 | 1.0 | 0.00 | 0.19 | 0.00 | 95 | 1011.7 |
| 20260502204304 | 57 | 202 | 1.0 | 2.0 | 0.00 | 0.19 | 0.00 | 95 | 1011.8 |
| 20260502203804 | 58 | 225 | 0.0 | 1.0 | 0.00 | 0.19 | 0.00 | 95 | 1011.7 |
| 20260502203304 | 58 | 225 | 0.0 | 1.0 | 0.00 | 0.19 | 0.00 | 95 | 1011.8 |
| 20260502202803 | 58 | 225 | 3.0 | 4.0 | 0.00 | 0.19 | 0.00 | 94 | 1011.9 |
| 20260502202304 | 58 | 180 | 0.0 | 1.0 | 0.00 | 0.19 | 0.00 | 94 | 1012.0 |
| 20260502201817 | 58 | 180 | 0.0 | 1.0 | 0.00 | 0.19 | 0.00 | 94 | 1011.8 |
| 20260502201307 | 58 | 180 | 0.0 | 0.0 | 0.00 | 0.19 | 0.00 | 94 | 1012.0 |
| 20260502200807 | 58 | 180 | 0.0 | 1.0 | 0.00 | 0.19 | 0.00 | 94 | 1011.8 |
| 20260502200306 | 58 | 180 | 0.0 | 1.0 | 0.00 | 0.19 | 0.00 | 94 | 1011.8 |
| 20260502195811 | 58 | 180 | 0.0 | 0.0 | 0.00 | 0.19 | 0.00 | 94 | 1011.8 |
| 20260502195300 | 58 | 180 | 0.0 | 1.0 | 0.02 | 0.19 | 0.00 | 94 | 1011.8 |
| 20260502194815 | 58 | 225 | 0.0 | 1.0 | 0.02 | 0.19 | 0.00 | 94 | 1011.9 |
| 20260502194304 | 58 | 186 | 0.0 | 0.0 | 0.02 | 0.19 | 0.00 | 94 | 1011.8 |
| 20260502193804 | 58 | 184 | 0.0 | 1.0 | 0.02 | 0.19 | 0.00 | 94 | 1011.9 |
| 20260502193304 | 58 | 172 | 0.0 | 1.0 | 0.02 | 0.19 | 0.00 | 93 | 1012.0 |
| 20260502192803 | 58 | 174 | 0.0 | 1.0 | 0.02 | 0.19 | 0.00 | 93 | 1012.1 |
| 20260502192305 | 58 | 174 | 1.0 | 2.0 | 0.02 | 0.19 | 0.00 | 93 | 1011.9 |
| 20260502191803 | 58 | 143 | 1.0 | 2.0 | 0.02 | 0.19 | 0.00 | 93 | 1011.7 |
| 20260502191302 | 58 | 152 | 1.0 | 2.0 | 0.02 | 0.19 | 0.00 | 92 | 1011.7 |
| 20260502190802 | 58 | 121 | 1.0 | 2.0 | 0.02 | 0.19 | 0.00 | 92 | 1011.7 |
| 20260502190316 | 58 | 180 | 1.0 | 2.0 | 0.02 | 0.19 | 0.00 | 92 | 1011.7 |
| 20260502185806 | 58 | 180 | 0.0 | 1.0 | 0.02 | 0.19 | 0.00 | 92 | 1011.8 |
| 20260502185306 | 58 | 180 | 0.0 | 1.0 | 0.00 | 0.17 | 0.00 | 92 | 1012.1 |
| 20260502184756 | 59 | 180 | 0.0 | 2.0 | 0.00 | 0.17 | 0.00 | 92 | 1011.8 |
| 20260502184255 | 59 | 180 | 1.0 | 2.0 | 0.00 | 0.17 | 0.00 | 92 | 1011.9 |
| 20260502183755 | 59 | 180 | 0.0 | 2.0 | 0.00 | 0.17 | 0.00 | 91 | 1012.1 |
| 20260502183254 | 59 | 180 | 1.0 | 2.0 | 0.00 | 0.17 | 0.00 | 91 | 1012.0 |
| 20260502182254 | 59 | 180 | 1.0 | 2.0 | 0.00 | 0.17 | 0.00 | 91 | 1011.8 |
| 20260502181753 | 59 | 180 | 0.0 | 1.0 | 0.00 | 0.17 | 0.00 | 91 | 1011.8 |
| 20260502181253 | 59 | 90 | 0.0 | 2.0 | 0.00 | 0.17 | 0.00 | 92 | 1012.0 |
| 20260502180808 | 59 | 129 | 0.0 | 2.0 | 0.00 | 0.17 | 0.00 | 92 | 1012.1 |
| 20260502180307 | 59 | 129 | 0.0 | 2.0 | 0.00 | 0.17 | 0.00 | 92 | 1012.0 |